Location: Moulis
(42.9609°N, 1.0909°E)
Time: 21:20:20
(UTC+00:00)

UNK - Pass Details

Date: 11 December 2025
Orbit: 653 x 673 km, 98.4° (Epoch: 21 January)

Event Time Altitude Azimuth Distance (km) Brightness Sun altitude
Rises 17:29:05 0° 9° (N) 3,022 6.8 -12.0°
Reaches altitude 10° 17:31:20 10° 7° (N) 2,101 6.0 -12.4°
Maximum altitude 17:35:51 62° 287° (WNW) 751 4.2 -13.2°
Drops below altitude 10° 17:40:19 10° 207° (SSW) 2,072 6.9 -14.0°
Sets 17:42:32 0° 204° (SSW) 2,977 7.7 -14.3°
